Regional Weather Roundup
Issued by NWS

Home | Current Version | Previous Version | Text Only | Print | Product List | Glossary On
Versions: 1 2 3 4 5 6 7 8 9 10 11 12 13 14 15 16 17 18 19 20 21 22 23 24 25 26 27 28 29 30 31 32 33 34 35 36 37 38 39 40 41 42 43 44 45 46 47 48 49 50
089
ASUS44 KFWD 240701
RWRTX
NORTH TEXAS HOURLY WEATHER ROUNDUP
NATIONAL WEATHER SERVICE FORT WORTH TX
100 AM CST SAT FEB 24 2018

NOTE: "FAIR" INDICATES FEW OR NO CLOUDS BELOW 12,000 FEET WITH NO
SIGNIFICANT WEATHER AND/OR OBSTRUCTIONS TO VISIBILITY.

TXZ118-119-240800-
DALLAS/FORT WORTH METROPLEX

CITY           SKY/WX    TMP DP  RH WIND       PRES   REMARKS
DFW AIRPORT    CLOUDY    48  45  89 NW5       29.99S
DALLAS LOVE    CLOUDY    47  45  93 NW8       30.00S
FTW MEACHAM    CLOUDY    46  45  96 CALM      30.00F
DAL-EXECUTIVE  FOG       47  47 100 NW7       29.99F VSB 1/4
FTW-ALLIANCE   CLOUDY    45  44  97 CALM      30.00F
FTW-NAS-JRB    CLOUDY    45  42  89 CALM      30.00F
FTW-SPINKS     CLOUDY    45  43  95 NW5       30.03R FOG
ARLINGTON      CLOUDY    44  44 100 NW6       30.01S
GRAND PRAIRIE  CLOUDY    45  45 100 CALM      30.02R
ADDISON        CLOUDY    46  45  97 CALM      30.02R
MESQUITE       CLOUDY    49  48  97 CALM      29.99F
LANCASTER      CLOUDY    48  47  98 N3        30.00F FOG
$$

TXZ091>094-102>105-117-120-121-131>134-240800-
NORTH CENTRAL TEXAS

CITY           SKY/WX    TMP DP  RH WIND       PRES   REMARKS
SHRMAN/DENISON CLOUDY    46  45  98 CALM      30.00F
GAINESVILLE    DRIZZLE   42  42  97 N3        30.02F
BOWIE          CLOUDY    40  40 100 CALM      30.00F
BRIDGEPORT     CLOUDY    41  41 100 CALM      30.04S FOG
DECATUR        FOG       41  40  98 W5        29.99F VSB 1   WCI  38
DENTON         CLOUDY    45  45 100 CALM      30.00F
MCKINNEY       CLOUDY    47  47 100 N6        30.00F
BONHAM         CLOUDY    45  45 100 NW3       30.01S FOG
ROCKWALL       CLOUDY    49  49 100 NW3       30.00F FOG
TERRELL        FOG       52  51  97 NW5       30.00F VSB 3/4
WAXAHACHIE     FOG       47  47 100 CALM      30.01S VSB 3/4
CLEBURNE       FOG       43  43 100 NW6       30.02R VSB 1   WCI  39
GRANBURY       CLOUDY    43  42  95 CALM      30.02F FOG
$$

TXZ083>090-098>101-113>116-127>130-139>142-154-155-240800-
WESTERN NORTH TEXAS

CITY           SKY/WX    TMP DP  RH WIND       PRES   REMARKS
WICHITA FALLS  CLOUDY    38  37  97 N6        29.99F FOG     WCI  33
WF-KICKAPOO    CLOUDY    39  39  99 N3        30.02F FOG
VERNON         CLOUDY    40  37  90 E6        29.98F WCI  35
ABILENE        CLOUDY    40  40 100 E3        29.96F FOG
ABILENE-DYESS  CLOUDY    41  41 100 E3        29.95F FOG
BRECKENRIDGE   CLOUDY    40  40 100 E3        29.98F
CISCO          FOG       39  39 100 CALM      29.97F VSB 1
EASTLAND       FOG       39  39  99 CALM      29.98F VSB 1
RANGER         FOG       39  39 100 CALM      29.99F VSB 1/2
MINERAL WELLS  CLOUDY    41  39  93 NW3       29.99F FOG
STEPHENVILLE   CLOUDY    42  41  95 CALM      30.01F VSB 3/4
COMANCHE       FOG       42  42 100 CALM      29.99F VSB 1/2
BROWNWOOD      FOG       46  46 100 CALM      29.99R VSB 1/4
COLEMAN        FOG       45  44  97 CALM      29.98S VSB 3/4
$$

TXZ143>147-156>162-174-175-240800-
CENTRAL TEXAS

CITY           SKY/WX    TMP DP  RH WIND       PRES   REMARKS
WACO           CLOUDY    50  49  96 N6        29.99F FOG
WACO-MCGREGOR  CLOUDY    53  52  96 N6        29.99S FOG
HILLSBORO      CLOUDY    50  50 100 CALM      29.99F FOG
CORSICANA      FOG       55  55 100 NE3       30.00F VSB 1/2
MEXIA          CLOUDY    61  60  97 S14       29.98F
HEARNE         CLOUDY    63  63 100 SE5       30.00F
CAMERON        CLOUDY    67  65  93 SE6       29.98F
TEMPLE         CLOUDY    56  56 100 NE3       29.98F FOG
KILLEEN        FOG       55  55 100 E3        29.96F VSB 1
KILLEEN-SKYLRK CLOUDY    57  56  96 CALM      29.98F FOG
GATESVILLE     FOG       54  55 100 CALM      29.99F VSB<1/4
HAMILTON       FOG       46  46 100 N3        29.99F VSB 1/4
LAMPASAS       FOG       57  57  99 CALM      29.97S VSB 1/4
$$

TXZ095>097-106>112-122>126-135>138-148>153-164>167-240800-
EAST TEXAS

CITY           SKY/WX    TMP DP  RH WIND       PRES   REMARKS
PARIS          FOG       58  57  97 CALM      29.99F VSB 1/4
SULPHUR SPRNGS FOG       57  57 100 CALM      30.01S VSB 1/4
MOUNT PLEASANT FAIR      62  62  99 S10       30.00F
GILMER         CLOUDY    62  62 100 S8        30.00S
MINEOLA        MOCLDY    63  63 100 S5        29.98F
TYLER          CLOUDY    65  64  97 S12       30.00S
LONGVIEW       MOCLDY    66  66 100 S9        30.01F
MARSHALL       CLOUDY    65  62  91 S5        30.04S
ATHENS         CLOUDY    59  59 100 S9        29.98F FOG
PALESTINE      CLOUDY    66  66 100 S5        30.02S FOG
JACKSONVILLE   CLOUDY    65  65 100 S7        30.03F FOG
HENDERSON      CLOUDY    68  65  92 S6        30.02F
CENTER         CLOUDY    68  66  92 S7        30.03F
NACOGDOCHES    CLOUDY    67  66  97 S5        30.02F
LUFKIN         CLOUDY    67  66  97 SE6       30.01F
$$

SUPPLEMENTAL OBSERVATIONS (NWS FORT WORTH AREA)

CITY           SKY/WX    TMP DP  RH WIND       PRES   REMARKS
$$

SUPPLEMENTAL OBSERVATIONS (NWS NORMAN AREA)

CITY           SKY/WX    TMP DP  RH WIND       PRES   REMARKS
GOODLETT         N/A     37  37  97 NE5       29.97F WCI  34
ODELL            N/A     38  38 100 NE5       29.99F WCI  34
CROWELL          N/A     38  38 100 E6        29.99F WCI  33
KNOX CITY        N/A     38  36  93 E6        29.99R WCI  34
SEYMOUR          N/A     37  37  99 E5        29.99F WCI  33
$$

SUPPLEMENTAL OBSERVATIONS (NWS SAN ANGELO AREA)

CITY           SKY/WX    TMP DP  RH WIND       PRES   REMARKS
WEINERT          N/A     37  36  96 E6        29.98F WCI  32
HASKELL          N/A     37  37  98 E5        29.97F WCI  34
THROCKMORTON     N/A     38  38 100 E5        29.99F WCI  34
STAMFORD         N/A     38  38  99 E5        29.98F WCI  35
CLYDE            N/A     40  40  99 E5        29.97F WCI  36
$$

SUPPLEMENTAL OBSERVATIONS (NWS SHREVEPORT AREA)

CITY           SKY/WX    TMP DP  RH WIND       PRES   REMARKS
$$

SUPPLEMENTAL OBSERVATIONS ARE A COLLECTION OF AUTOMATED INSTRUMENTS
THAT ARE MAINTAINED BY A VARIETY OF FEDERAL AND STATE AGENCIES.
CERTAIN ELEMENTS...SUCH AS HUMIDITY VALUES AND SUSTAINED WIND
SPEEDS...MAY BE APPROXIMATED.





USA.gov is the U.S. government's official web portal to all federal, state and local government web resources and services.